User: anonymous   Login
Location: Unspecified
(0.0000°N, 0.0000°E)
Time: 05:23:40
(UTC+01:00)
Language:

Resurs 01 Rocket - Orbit

View from above orbital plane
View from above orbital plane
View from above satellite
View from above satellite

Ground track
Ground track

The orbit data is extracted from the following two-line orbital elements,

1 23343U 94074B   15024.59411407  .00000253  00000-0  44207-4 0  2301
2 23343 098.2243 037.4675 0006726 005.3558 104.9364 14.76379044 87764
Epoch (UTC): 24 January 2015 14:15:31
Eccentricity: 0.0006726
inclination: 98.2243°
perigee height: 636 km
apogee height: 645 km
right ascension of ascending node: 37.4675°
argument of perigee: 5.3558°
revolutions per day: 14.76379044
mean anomaly at epoch: 104.9364°
orbit number at epoch: 8776

The dashed part of the orbit path shows where the satellite is in the earth's shadow,  

DLR